STARLINK-1184 (45098 NORAD) Tracking and Keplerian Element Data

This shows tracking and keplerian element data for the satellite.

Feedback or suggestion? Click here.




ElementValue
Catalog45098
NameSTARLINK-1184
Epoch Orbit773
Epoch Day87.91667824
Epoch Year2020
RAAN306.4811
Inclination53.0003
Eccentricity0.0001391
Argument of Perigee62.2723
Mean Anonmoly269.5036
Mean Motion15.62738734
Decay Rate2.728E-05
L11 45098U 20006BG 20087.91667824 .00002728 00000-0 35639-4 0 9993
L22 45098 53.0003 306.4811 0001391 62.2723 269.5036 15.62738734 7732

Live tracking and technical data element details for STARLINK-1184 (NORAD 45098). STARLINK-1184 can be tracked NOW for your location showing map with azimuth and elevation plus other details from your city location.

Track the satellite on the map from your city or location and see movement details for azimuth, elevation, latitude, longitude, range, height, and movement on the map or in text.







IsCatalogInMostPopularTable: catalog: 45098, numindb: 12
Update: records affected: 1



GetName: 45098 STARLINK-1184

Hit Count: updated at: Sat, 28 Mar 2020 21:14:57 GMT